Location: Los Angeles
(34.0542°N, 118.2411°W)
Time: 01:31:21
(UTC-07:00)

Daily predictions for brighter satellites

Satellite Brightness Start Highest point End
(mag) Time Altitude Azimuth Time Altitude Azimuth Time Altitude Azimuth
Terra 4.2 00:08:56 15° WNW 00:08:56 15° WNW 00:10:30 10° NW
SL-16 R/B 3.0 00:03:11 10° NNW 00:07:17 48° N 00:07:17 48° N
CZ-2C R/B 4.1 00:20:17 46° N 00:20:17 46° N 00:24:15 10° N
Cosmos 1727 Rocket 4.4 00:28:15 58° N 00:28:15 58° N 00:33:09 10° N
SeaSat 1 3.9 00:33:27 34° N 00:33:27 34° N 00:36:22 10° NNW
Lacrosse 5 3.6 00:35:59 29° NNW 00:35:59 29° NNW 00:39:45 10° NNE
USA 267 4.1 00:34:38 10° NNE 00:40:48 45° NW 00:42:34 37° WNW
Cosmos 2360 Rocket 3.2 00:42:24 10° NNW 00:46:21 43° N 00:46:21 43° N
COSMOS 2428 4.2 00:47:12 10° N 00:51:54 29° NE 00:51:54 29° NE
NOSS 3-1 (C) 4.3 00:46:54 10° NW 00:53:44 60° W 00:53:44 60° W
Lacrosse 5 rocket 4.0 00:50:03 10° NNW 00:51:29 20° NNW 00:51:29 20° NNW
Cosmos 2322 Rocket 3.9 00:55:06 10° NW 00:57:49 25° WNW 00:57:49 25° WNW
USA 234 4.4 01:08:34 21° E 01:12:22 38° NE 01:18:18 10° NNW
CZ-2C R/B 4.4 01:12:26 10° NNW 01:16:13 25° NW 01:16:13 25° NW
Cosmos 1459 Rocket 4.4 01:10:49 10° N 01:15:58 61° N 01:15:58 61° N
Cosmos 2333 Rocket 3.9 01:19:43 10° N 01:24:20 25° ENE 01:25:16 24° ENE
Cosmos 2297 Rocket 4.1 01:27:30 20° ENE 01:27:30 20° ENE 01:30:18 10° NE
ATLAS 2AS CENTAUR R/B 3.9 01:20:25 10° NNW 01:27:57 43° NE 01:31:13 29° E
Cosmos 2219 Rocket 3.4 01:25:52 10° N 01:31:01 34° ENE 01:31:03 34° ENE
NOSS 3-3 (A) 4.4 01:33:07 55° NE 01:33:07 55° NE 01:38:11 10° NE
NOSS 3-3 (C) 4.4 01:33:15 55° NE 01:33:15 55° NE 01:38:17 10° NE
Cosmos 1802 Rocket 4.4 01:31:46 10° N 01:36:39 55° NNW 01:36:39 55° NNW
Cosmos 2016 Rocket 4.3 01:34:09 10° N 01:39:27 63° NNW 01:39:27 63° NNW
Cosmos 2237 Rocket 3.8 01:46:04 10° N 01:50:52 28° ENE 01:52:19 25° E
CZ-3B DEB 4.4 01:54:53 45° SSE 01:58:27 53° ESE 02:12:23 10° NE
ATLAS 3B CENTAUR R/B 4.2 01:35:10 10° WSW 02:01:19 68° S 02:10:11 10° E
Cosmos 2227 Rocket 2.7 02:04:40 55° NE 02:04:40 55° NE 02:09:13 10° NNE
Cosmos 2123 Rocket 4.4 02:04:52 53° NW 02:04:52 53° NW 02:10:05 10° N
Resurs 1-4 Rocket 4.3 02:01:09 10° ENE 02:04:16 16° E 02:04:44 15° E
Cosmos 1447 Rocket 4.5 02:10:40 78° NNE 02:10:40 78° NNE 02:16:33 10° N
Cosmos 2233 Rocket 3.9 02:14:57 10° N 02:21:09 86° N 02:21:09 86° N
CZ-2D R/B 3.7 02:21:56 10° NE 02:26:12 25° E 02:26:43 25° ESE
Cosmos 1455 4.4 02:28:33 10° NNE 02:31:12 22° ENE 02:31:12 22° ENE
Cosmos 2082 3.8 02:35:30 70° NNW 02:35:30 70° NNW 02:40:40 10° NNE
SL-08 R/B 3.9 02:36:00 55° ENE 02:36:00 55° ENE 02:40:52 10° N
COSMOS 2428 4.3 02:31:17 10° NW 02:33:53 24° WNW 02:33:53 24° WNW
NOSS 0 Rocket 3.8 02:30:12 10° NNW 02:36:22 85° W 02:36:22 85° W
Lacrosse 4 Rocket 3.3 02:39:11 25° E 02:39:11 25° E 02:41:40 10° NE
IRS-1C 4.3 02:35:58 10° NNE 02:41:16 62° ESE 02:41:16 62° ESE
Cosmos 1626 4.0 02:44:25 30° NNE 02:44:25 30° NNE 02:46:23 10° N
AQUA 4.1 02:40:38 10° NNE 02:44:46 65° NE 02:44:46 65° NE
Meteor 2-12 Rocket 4.3 02:43:18 10° N 02:49:24 72° W 02:49:32 72° WSW
Meteor 1-11 4.4 02:51:39 60° WNW 02:51:39 60° WNW 02:57:09 10° N
USA 234 3.3 02:55:51 53° WSW 02:55:51 53° WSW 03:01:34 10° NW
Cosmos 1464 Rocket 4.0 02:49:09 10° N 02:55:18 72° E 02:56:56 49° SSE
DELTA 2 R/B (1) 3.8 02:55:50 56° WNW 02:56:42 64° NNW 03:02:13 10° ENE
Meteor 1-27 4.1 02:51:39 10° NNW 02:57:29 77° W 02:57:46 75° SW
IRS-1D 3.8 02:57:48 10° NNE 03:03:05 61° E 03:03:55 54° SE
ADEOS Rocket 3.6 02:56:55 10° NNE 03:04:33 82° ESE 03:07:32 43° S
IRS-P3 4.5 02:59:58 10° N 03:05:06 48° WNW 03:05:06 48° WNW
Cosmos 2333 Rocket 3.1 03:03:25 10° NW 03:07:13 33° WNW 03:07:13 33° WNW
BREEZE-M R/B 4.4 03:06:58 45° S 03:08:47 55° SE 03:13:29 10° ENE
Cosmos 2297 Rocket 2.8 03:09:18 39° WNW 03:09:42 40° WNW 03:15:00 10° N
Sich 1 3.3 03:11:32 59° ESE 03:11:44 60° E 03:16:03 10° NNE
Cosmos 1633 Rocket 3.7 03:11:33 46° ESE 03:12:02 48° E 03:16:14 10° NNE
Cosmos 2219 Rocket 3.7 03:10:03 10° NW 03:12:43 22° WNW 03:12:43 22° WNW
Cosmos 1980 4.2 03:11:01 10° NW 03:15:42 43° W 03:15:42 43° W
ATLAS 2AS CENTAUR R/B 3.4 03:11:46 10° NW 03:18:34 38° WSW 03:18:34 38° WSW
UNKNOWN OBJECT B 3.6 03:23:45 10° NNE 03:27:34 44° E 03:28:17 39° SE
SL-16 R/B 2.4 03:28:29 33° S 03:31:24 79° WSW 03:37:37 10° NNW
MOS 1 Rocket 4.4 03:26:32 10° NNE 03:31:36 47° E 03:34:34 24° SSE
ATLAS 5 CENTAUR R/B 3.4 03:31:07 19° SE 03:32:54 24° ESE 03:36:44 10° ENE
Cosmos 2237 Rocket 3.0 03:29:53 10° NW 03:34:04 32° W 03:34:04 32° W
SL-16 R/B 2.1 03:31:10 10° NNW 03:36:52 86° WSW 03:41:04 19° SSE
ADEOS 3.6 03:34:06 10° N 03:39:16 66° WNW 03:40:42 46° SW
Cosmos 2227 4.3 03:38:28 38° S 03:40:48 76° ESE 03:46:34 10° NNE
Resurs 1-4 Rocket 2.4 03:39:12 10° N 03:44:21 53° WNW 03:45:49 40° WSW
Cosmos 1570 Rocket 4.3 03:39:22 10° NNW 03:44:26 44° WSW 03:45:04 42° WSW
ARIANE 5 R/B 2.7 03:42:54 10° N 03:47:49 51° WNW 03:49:08 40° WSW
Cosmos 2227 Rocket 4.1 03:46:29 14° WNW 03:48:08 15° NW 03:51:21 10° NNW
ADEOS II 4.0 03:46:14 10° NE 03:50:30 25° E 03:54:44 10° SSE
UNK 4.0 03:51:16 43° WSW 03:51:45 45° W 03:56:11 10° NNW
Cosmos 2034 Rocket 4.3 03:48:04 10° NNW 03:54:10 50° W 03:57:03 30° SSW
Cosmos 1707 Rocket 3.9 03:51:03 10° NNW 03:55:14 45° W 03:55:50 42° WSW
Cosmos 375 4.4 03:51:27 10° NNW 03:56:21 79° WSW 04:00:19 10° SSE
USA 161 2.8 04:00:37 25° ENE 04:00:37 25° ENE 04:02:13 10° NNE
MOZ.5/SAFIR/RUBIN 5/SL-8 3.8 03:57:06 14° SSE 04:01:11 86° ENE 04:05:59 10° N
Cosmos 2242 Rocket 3.5 03:58:48 10° N 04:03:19 87° W 04:06:34 19° S
Cosmos 1892 4.5 04:00:06 10° SSE 04:03:25 29° E 04:06:45 10° NNE
OAO 3 Rocket 3.4 04:02:58 35° SW 04:04:49 58° SSE 04:09:41 10° E
Cosmos 1867 4.4 04:01:22 19° S 04:05:01 46° ESE 04:10:12 10° NE
Cosmos 1933 3.9 04:01:24 10° N 04:05:27 58° E 04:09:29 10° SSE
CZ-2D R/B 3.0 04:01:37 10° N 04:06:13 32° WNW 04:08:03 26° WSW
Cosmos 2263 Rocket 3.3 04:02:03 11° S 04:06:55 39° ESE 04:12:02 10° NE
Cosmos 1455 4.1 04:04:31 10° NW 04:06:10 16° WNW 04:06:10 16° WNW
GPS 2-04 Rocket1 3.3 04:10:36 35° SW 04:10:58 36° SSW 04:14:51 10° SE
Cosmos 1862 Rocket 3.6 04:10:01 10° N 04:14:20 77° E 04:18:38 10° S
Cosmos 1486 Rocket 4.1 04:11:43 27° SW 04:14:26 62° WNW 04:19:38 10° N
Cosmos 1933 Rocket 3.6 04:13:14 26° SSW 04:15:40 68° W 04:20:06 10° N
Cosmos 1400 Rocket 2.7 04:14:14 22° S 04:16:39 82° E 04:20:36 10° N
Lacrosse 4 Rocket 3.1 04:15:32 17° W 04:16:46 19° WNW 04:19:51 10° N
Meteor 2-10 Rocket 3.7 04:12:03 10° N 04:17:03 68° E 04:22:06 10° SSE
Meteosat 1 Rocket2 3.7 04:17:31 27° SSW 04:18:55 34° S 04:22:22 10° ESE
In-Cosmos 22 Rocket 4.0 04:15:16 17° S 04:19:26 85° W 04:24:46 10° N
Cosmos 841 Rocket 3.9 04:17:36 10° N 04:22:52 67° ENE 04:28:05 10° SSE
Cosmos 468 Rocket 4.5 04:26:47 10° NW 04:31:32 38° W 04:36:14 10° SSW
Cosmos 371 Rocket 3.2 04:27:08 10° NNW 04:31:56 70° WSW 04:36:41 10° S
Meteor 1-26 Rocket 4.3 04:32:57 10° N 04:38:42 83° E 04:44:17 10° S
Cosmos 1703 Rocket 4.4 04:36:06 10° N 04:40:23 53° E 04:44:42 10° SSE
DELTA 2 R/B (1) 4.5 04:38:17 10° WNW 04:43:39 47° N 04:49:00 10° ENE
ATLAS 3B CENTAUR R/B 3.2 04:35:12 10° W 04:46:10 39° SSW 04:50:39 10° SE
USA 102 3.7 04:44:35 10° N 04:46:44 19° NW 04:47:00 19° WNW
Okean O Rocket 1.6 04:44:15 10° NNE 04:48:36 90° ESE 04:52:56 10° SSW
GP-B 3.2 04:47:01 10° N 04:51:24 60° W 04:55:45 10° SSW
Cosmos 1763 Rocket 3.7 04:47:04 10° NNW 04:52:03 47° WSW 04:56:57 10° S
Cosmos 2285 Rocket 4.0 04:45:59 10° NNW 04:52:17 79° WSW 04:58:35 10° S
Cosmos 1503 Rocket 4.3 04:48:49 12° SSW 04:53:41 53° WNW 04:58:50 10° N
CZ-4B R/B 3.0 04:49:36 10° N 04:53:57 72° WNW 04:58:02 10° SSW
Cosmos 1818 4.0 04:49:07 10° NNW 04:54:32 69° ENE 04:59:55 10° SE
PSLV R/B 4.2 04:54:45 10° N 04:58:34 46° WNW 05:02:17 10° SSW
Cosmos 1603 3.9 04:54:20 10° NNW 04:59:47 47° WSW 05:05:09 10° S
Cosmos 2279 Rocket 4.0 04:53:47 10° NNW 04:59:57 68° W 05:06:07 10° S
Abrixas rocket 2.2 04:57:18 13° SW 05:00:11 82° SE 05:03:30 10° NE
Cosmos 1869 Rocket 3.6 04:57:47 10° S 05:02:15 77° W 05:06:44 10° N
Cosmos 304 Rocket 4.1 05:00:01 10° NNW 05:04:49 73° ENE 05:09:35 10° SSE
Cosmos 1315 Rocket 3.5 05:08:36 10° SSW 05:12:23 37° WNW 05:16:08 10° N
USA 215 3.8 05:07:30 10° NE 05:13:53 55° SE 05:20:14 10° SSW
SEDSat Delta rocket 4.5 05:10:58 10° WSW 05:17:12 51° SSE 05:23:45 10° E
ATLAS 5 CENTAUR R/B 2.9 05:13:10 10° WSW 05:17:19 31° NW 05:21:45 10° NNE
PSLV R/B 4.0 05:16:52 10° N 05:20:51 42° WNW 05:24:48 10° SW
